Date,TemperatureHighF,TemperatureAvgF,TemperatureLowF,DewpointHighF,DewpointAvgF,DewpointLowF,HumidityHigh,HumidityAvg,HumidityLow,PressureMaxIn,PressureMinIn,WindSpeedMaxMPH,WindSpeedAvgMPH,GustSpeedMaxMPH,PrecipitationSumIn
2014-1-1,43.3,37.9,34.6,32.0,27.0,21.4,82,65,51,30.41,30.18,1,0,7,0.00
2014-1-2,41.2,37.2,24.0,40.7,33.9,14.3,98,88,66,30.17,29.71,6,1,27,0.11
2014-1-3,27.4,23.0,12.1,12.7,5.3,0.2,84,47,36,30.51,29.88,8,1,33,0.00
2014-1-4,37.8,27.1,18.2,37.0,16.1,5.6,97,64,46,30.53,30.35,0,0,5,0.00
2014-1-5,43.7,39.6,36.1,43.2,39.0,35.6,99,98,97,30.32,29.82,1,0,9,0.33
2014-1-6,41.1,19.0,4.4,40.8,9.2,-6.1,99,66,44,30.22,29.72,13,4,21,0.14
2014-1-7,22.1,10.2,0.3,6.4,-0.6,-6.3,73,62,48,30.60,30.25,5,2,20,0.00
2014-1-8,42.3,31.5,15.8,16.7,9.7,1.8,61,40,33,30.65,30.56,1,0,8,0.00
2014-1-9,43.1,36.6,30.2,35.1,15.6,7.3,87,44,29,30.58,30.50,0,0,6,0.00
2014-1-10,49.5,45.0,36.1,49.0,44.4,34.0,98,97,92,30.49,30.10,1,0,9,0.99
2014-1-11,51.4,49.3,46.9,51.0,49.0,46.6,99,99,98,30.06,29.65,5,0,12,2.07
2014-1-12,51.9,42.5,35.1,36.4,32.0,27.5,78,66,50,30.20,29.81,2,1,16,0.00
2014-1-13,49.3,43.5,39.5,40.0,35.8,32.9,96,75,60,30.17,29.98,2,1,14,0.07
2014-1-14,55.7,49.0,41.1,42.7,38.4,32.7,98,70,43,29.94,29.82,15,2,18,0.11
2014-1-22,32.4,20.7,11.2,11.0,3.3,-7.5,77,50,26,30.13,29.82,7,3,28,0.00
2014-1-23,33.2,22.1,12.5,10.9,6.7,-1.4,63,51,39,30.45,30.15,6,3,20,0.00
2014-1-24,28.1,14.7,3.3,-0.4,-4.7,-12.0,70,45,21,30.66,30.35,7,3,26,0.00
2014-1-25,34.1,23.7,14.9,22.4,7.7,-2.0,71,51,36,30.33,29.82,2,1,10,0.00
2014-1-26,46.5,36.7,27.1,29.0,21.3,14.2,70,54,32,30.01,29.92,1,0,11,0.00
2014-1-27,52.7,41.0,25.0,36.4,28.7,6.7,72,62,45,30.00,29.86,9,1,18,0.00
2014-1-28,23.7,21.6,20.9,17.8,13.4,3.6,86,72,45,30.25,30.01,10,2,22,0.00
2014-2-4,42.4,37.5,35.3,37.9,35.4,34.2,97,92,84,30.30,30.13,3,2,12,0.12
2014-2-5,56.6,40.3,30.3,50.5,36.6,25.8,99,88,41,30.10,29.89,7,2,28,0.42
2014-2-6,37.2,30.5,23.9,27.7,23.5,20.1,89,76,57,30.36,30.12,8,4,32,0.00
2014-2-7,47.5,36.7,28.9,32.3,28.9,25.0,88,74,54,30.36,30.27,1,0,7,0.00
2014-2-8,52.7,42.3,37.0,35.0,32.1,27.1,82,68,49,30.28,30.12,1,0,8,0.00
2014-2-9,55.7,43.4,37.6,39.5,35.5,33.2,85,74,52,30.16,29.99,4,1,17,0.00
2014-2-10,37.5,36.1,34.3,34.8,33.4,31.7,94,90,84,30.15,30.03,7,1,12,0.05
2014-2-11,31.3,29.4,28.0,30.1,27.5,26.5,97,92,90,30.33,30.22,4,0,9,0.06
2014-2-12,27.2,22.5,18.5,25.4,20.2,16.2,95,91,73,30.38,29.91,17,4,25,0.00
2014-2-13,37.8,31.6,27.1,32.5,28.0,22.7,96,87,67,29.89,29.68,6,3,22,0.27
2014-2-14,52.7,45.4,31.7,34.6,30.5,21.5,72,56,48,29.89,29.80,7,1,9,0.49
2014-2-15,39.5,33.4,31.8,35.4,23.1,17.6,96,66,47,29.86,29.59,19,5,28,0.05
2014-2-16,56.1,42.0,32.3,29.6,26.2,17.0,75,55,34,30.16,30.06,4,1,21,0.00
2014-2-17,46.2,39.9,35.7,33.2,30.1,27.9,81,68,54,30.30,30.17,5,1,17,0.00
2014-2-18,43.6,40.5,37.8,35.0,30.7,28.2,89,69,57,30.25,30.15,7,2,14,0.06
2014-2-20,64.2,57.5,54.1,56.5,53.6,50.3,95,87,76,30.10,29.93,2,0,12,0.00
2014-2-21,60.5,52.5,43.7,54.5,39.8,18.8,98,68,24,30.01,29.80,5,2,16,1.03
2014-2-22,60.3,48.9,41.7,25.1,20.7,17.4,47,34,21,30.21,30.02,6,2,14,0.00
2014-2-23,65.1,52.4,44.8,33.2,28.9,24.8,49,41,27,30.12,29.94,2,0,9,0.00
2014-2-24,57.1,46.9,40.4,35.0,29.7,19.3,79,53,34,30.12,29.93,7,4,28,0.00
2014-2-25,61.4,47.6,40.0,33.5,24.1,18.7,52,40,33,30.10,29.91,4,1,14,0.00
2014-2-26,40.5,36.3,32.3,22.1,21.0,18.5,60,54,46,29.93,29.85,10,3,23,0.00
2014-7-1,83.5,74.3,67.4,74.1,69.8,66.5,98,87,71,29.99,29.86,0,0,6,0.00
2014-7-2,86.9,77.4,70.5,74.2,69.2,64.0,86,76,62,29.94,29.89,2,0,14,0.00
2014-7-3,81.9,74.5,69.2,75.1,65.9,56.5,94,75,64,29.94,29.84,4,1,20,0.15
2014-7-4,78.7,69.1,61.8,59.2,54.5,50.5,74,61,44,30.16,29.94,4,3,22,0.00
2014-7-5,76.2,67.1,58.7,59.6,53.0,47.1,71,61,50,30.26,30.17,3,1,12,0.08
2014-7-6,79.8,69.7,62.3,63.7,59.7,54.1,92,72,50,30.18,30.03,0,0,6,0.00
2014-7-7,81.4,75.7,66.3,70.7,67.5,61.5,91,76,65,30.05,29.91,5,0,7,0.00
2014-7-8,80.6,69.7,65.9,72.7,64.1,56.9,93,83,65,30.00,29.92,9,0,11,0.09
2014-7-9,81.2,74.2,68.1,72.2,67.9,63.3,90,81,66,29.99,29.93,3,0,5,0.00
2014-7-10,74.3,69.5,64.5,71.0,66.5,61.9,97,90,80,30.09,29.96,5,0,8,0.51
2014-7-11,81.7,76.1,66.5,71.2,67.9,62.2,92,77,62,30.17,30.07,3,0,6,0.00
2014-7-12,72.3,69.8,67.8,69.8,67.9,66.3,97,94,91,30.18,30.15,1,0,2,0.00
2014-7-13,84.8,76.6,68.6,73.9,69.0,63.6,91,78,59,30.11,29.99,3,0,3,0.00
2014-7-14,75.9,72.7,69.6,71.8,67.8,65.9,92,85,79,30.00,29.95,0,0,2,0.27
2014-7-15,78.2,71.5,66.8,73.5,67.6,61.8,97,88,75,29.88,29.74,12,1,14,0.32
2014-7-16,77.5,67.7,62.2,61.8,56.8,50.7,79,69,55,29.93,29.81,3,1,14,0.00
2014-7-17,76.5,67.3,62.3,62.5,55.2,50.3,78,66,54,30.06,29.93,2,1,11,0.00
2014-7-18,67.6,65.9,62.3,66.8,64.4,58.9,98,95,81,30.14,30.06,1,0,6,0.75
2014-7-19,62.2,60.8,59.3,61.9,60.3,58.5,99,98,96,30.13,30.07,8,0,8,1.01
2014-7-20,73.0,67.4,59.3,70.0,65.4,58.2,99,94,87,30.12,30.04,4,0,5,0.02
2014-7-21,70.2,68.4,66.6,68.9,67.1,65.4,98,96,92,30.12,30.03,8,1,9,1.08
2014-7-22,75.2,69.1,65.8,71.0,67.4,65.2,98,95,84,30.14,30.07,1,0,6,0.18
2014-7-23,75.4,71.2,66.3,72.2,69.2,65.4,98,94,86,30.11,30.02,4,0,5,0.32
2014-7-24,78.1,71.1,67.6,72.5,66.7,64.5,97,86,80,29.94,29.86,8,1,10,0.01
2014-7-25,77.9,70.6,65.1,69.9,66.5,62.7,95,87,73,30.02,29.93,1,0,9,0.01
2014-7-26,82.2,73.1,66.7,71.4,65.9,60.7,96,79,61,30.02,29.94,1,0,9,0.00
2014-7-27,84.6,75.3,69.9,74.6,68.0,63.8,86,78,70,29.96,29.81,4,0,22,0.00
2014-7-28,81.3,71.9,65.9,69.0,62.6,57.4,93,74,51,29.89,29.77,3,1,13,0.06
2014-7-29,73.5,66.2,60.3,62.3,56.7,53.2,84,72,59,29.97,29.86,4,2,18,0.00
2014-7-30,74.3,64.5,58.0,62.1,54.6,49.0,79,70,62,30.07,29.99,3,1,15,0.09
2014-7-31,65.5,63.1,60.7,62.7,60.4,54.8,97,91,70,30.11,30.04,3,0,7,0.58
2014-8-1,62.2,61.1,59.2,60.5,59.7,57.5,98,95,94,30.11,30.05,10,1,13,0.32
2014-8-2,71.0,66.1,60.5,65.6,62.8,59.9,98,89,80,30.12,30.06,6,1,10,0.42
2014-8-3,77.9,69.6,62.9,67.7,64.6,62.0,98,85,69,30.09,30.01,1,0,7,0.00
2014-8-4,76.9,70.4,62.6,70.3,66.7,61.4,97,88,75,30.08,30.00,6,0,6,0.41
2014-8-5,77.8,69.5,65.5,72.7,65.9,62.9,97,89,77,30.06,29.98,0,0,8,0.36
2014-8-6,78.6,72.1,68.7,70.4,63.2,58.4,85,74,67,30.01,29.93,1,0,10,0.00
2014-8-7,82.6,73.5,68.8,69.4,64.5,59.8,86,74,55,30.00,29.92,1,0,12,0.00
2014-8-8,70.7,67.8,64.6,67.3,65.3,62.7,98,92,80,30.08,29.97,0,0,3,0.77
2014-8-9,75.1,68.3,65.0,72.0,66.9,64.4,98,95,88,30.05,29.96,9,0,10,1.40
2014-8-10,65.7,65.6,65.4,65.0,64.8,64.7,98,98,97,30.01,30.00,2,1,9,0.07
2014-8-11,78.1,69.4,64.3,72.9,67.4,63.7,99,94,78,30.06,29.90,0,0,4,0.01
2014-8-12,78.0,71.9,67.9,73.8,69.6,64.3,98,93,82,29.92,29.75,2,0,9,0.72
2014-8-13,75.8,67.9,62.1,63.5,58.6,56.4,87,73,55,29.99,29.82,4,2,17,0.00
2014-8-14,78.2,67.1,61.6,66.2,59.3,53.6,85,77,62,30.04,29.96,2,1,15,0.00
2014-8-15,76.2,69.2,64.5,68.1,61.7,58.0,84,77,67,30.02,29.95,1,0,10,0.00
2014-8-16,77.1,71.0,65.9,70.3,63.8,59.0,86,78,70,30.02,29.95,1,0,5,0.00
2014-8-17,72.3,69.9,68.2,64.6,62.5,61.0,81,78,72,30.01,29.97,0,0,4,0.00
2014-8-18,78.2,72.0,67.5,72.3,68.1,65.7,94,88,73,29.92,29.79,0,0,7,0.08
2014-8-19,77.0,71.8,67.7,73.2,67.2,62.7,95,86,77,29.88,29.79,1,0,8,0.11
2014-8-20,84.2,73.5,69.6,72.9,66.8,62.5,86,80,65,30.05,29.88,4,1,21,0.01
2014-8-21,82.7,74.7,69.2,72.5,65.9,54.1,85,74,48,30.09,30.00,3,0,22,0.04
2014-8-22,74.2,74.1,74.1,67.5,67.3,67.2,80,79,79,30.06,30.05,0,0,0,0.00
2014-8-23,83.6,77.3,73.5,74.0,69.2,66.5,84,76,68,29.96,29.85,4,1,16,0.01
2014-8-24,76.4,70.2,66.0,68.7,66.9,63.1,95,89,77,30.05,29.88,2,1,10,0.01
2014-8-25,76.4,66.9,62.1,63.3,60.5,55.8,93,81,61,30.10,30.04,2,1,10,0.07
2014-8-26,78.5,67.4,60.2,66.5,60.1,56.3,88,78,64,30.14,30.04,1,0,7,0.00
2014-8-27,70.5,65.2,61.2,64.7,59.5,57.2,92,82,74,30.09,30.03,1,0,5,0.07
2014-8-28,85.7,75.2,69.4,68.6,62.9,58.3,80,66,52,30.02,29.95,2,0,13,0.00
2014-8-29,83.2,74.3,69.6,70.2,66.2,61.3,90,76,61,30.08,29.98,1,0,6,0.06
2014-8-30,80.3,72.0,67.1,71.2,67.7,64.4,94,86,71,30.15,30.06,0,0,5,0.00
2014-8-31,82.3,72.6,65.8,74.1,68.7,64.9,98,88,72,30.13,30.05,0,0,5,0.34
2014-9-1,85.7,75.8,70.6,73.5,69.2,64.0,89,80,67,30.09,30.00,0,0,4,0.00
2014-9-2,83.1,77.1,70.7,74.6,70.9,65.9,97,82,67,30.05,29.91,2,0,3,0.11
2014-9-3,84.3,73.2,67.4,72.1,66.2,62.2,97,80,57,30.06,29.95,1,0,9,0.48
2014-9-4,70.7,69.0,66.9,70.0,68.2,66.0,98,98,97,30.12,30.06,0,0,1,0.10
2014-9-5,81.8,72.4,67.4,71.7,68.6,66.5,98,89,66,30.18,30.05,0,0,6,0.00
2014-9-6,80.9,71.7,68.2,71.6,68.7,66.7,98,91,72,30.07,29.93,2,0,9,0.24
2014-9-7,81.7,74.6,67.0,71.4,67.4,63.8,91,79,65,30.03,29.93,6,1,11,0.01
2014-9-8,67.9,64.8,63.8,67.0,63.8,62.4,98,96,95,30.07,29.99,3,1,11,0.11
2014-9-9,69.7,65.7,63.0,66.2,63.6,61.1,97,93,88,30.12,30.06,1,0,8,0.00
2014-9-10,73.0,66.7,63.0,67.6,64.3,61.5,97,92,82,30.12,30.01,0,0,6,0.00
2014-9-11,77.3,71.0,65.8,72.5,68.6,64.9,98,92,86,30.03,29.98,2,0,4,0.05
2014-9-12,80.7,71.8,68.6,73.2,68.4,65.5,97,89,72,30.03,29.95,1,0,5,0.27
2014-9-13,76.1,69.6,65.3,71.2,67.1,61.0,99,92,74,30.11,29.98,3,0,10,0.38
2014-9-14,64.9,60.2,56.2,62.5,59.1,55.4,98,96,91,30.23,30.11,5,1,11,0.13
2014-9-16,74.4,66.2,62.6,70.3,65.0,61.7,99,96,86,30.12,29.94,0,0,0,0.98
2014-9-17,67.2,64.0,61.7,63.8,62.2,60.5,98,94,89,29.95,29.90,0,0,0,0.00
2014-9-18,68.4,63.7,60.1,64.6,61.2,58.4,96,92,84,30.02,29.90,0,0,0,0.00
2014-9-19,69.6,64.3,61.5,64.7,61.2,56.9,97,90,78,30.18,30.01,2,0,10,0.00
2014-9-20,74.8,64.8,58.8,61.5,59.0,57.1,94,82,58,30.19,30.02,1,0,7,0.00
2014-9-21,81.0,67.8,61.5,68.2,61.4,57.0,89,81,63,30.04,29.84,1,0,12,0.01
2014-9-22,72.2,61.7,58.2,62.6,50.5,47.9,86,67,52,30.14,29.89,7,1,22,0.04
2014-9-23,60.7,54.8,52.2,53.7,50.2,47.5,90,84,72,30.29,30.13,7,1,12,0.00
2014-9-24,65.7,56.2,50.9,55.6,48.4,43.7,96,76,48,30.35,30.26,2,1,17,0.01
2014-9-25,69.6,63.8,56.8,63.0,60.6,56.0,98,90,78,30.26,30.16,6,1,13,0.05
2014-9-26,64.8,62.3,59.2,62.3,60.0,58.3,97,92,89,30.20,30.14,7,0,14,0.00
2014-9-27,61.2,61.2,61.2,58.9,58.9,58.9,92,92,92,30.20,30.19,2,1,5,0.00
2014-9-28,66.5,62.0,58.3,63.0,58.1,54.3,93,87,75,30.17,30.07,1,0,9,0.05
2014-9-29,62.8,60.4,55.0,62.2,59.6,54.2,99,97,96,30.08,29.95,0,0,7,0.22
2014-9-30,77.2,69.0,57.3,61.9,58.2,55.2,99,70,47,29.97,29.86,7,0,8,0.00
2014-10-1,74.3,67.3,62.7,65.5,58.8,53.3,81,74,68,30.01,29.89,1,0,9,0.00
2014-10-2,77.8,67.7,62.0,63.9,59.8,57.8,88,76,55,30.09,30.00,0,0,4,0.00
2014-10-3,66.0,63.0,61.5,63.0,61.5,58.7,98,95,80,30.01,29.85,1,0,5,0.86
2014-10-4,60.8,52.7,44.3,55.6,41.4,32.2,87,67,43,29.91,29.74,2,0,13,0.00
2014-10-5,61.4,48.3,40.4,45.3,35.7,28.8,79,62,46,30.04,29.92,1,0,7,0.00
2014-10-6,63.2,54.8,48.8,55.4,47.3,39.5,92,76,63,30.08,30.01,0,0,7,0.04
2014-10-7,66.0,58.8,53.9,60.8,54.6,49.6,97,86,73,30.12,29.99,0,0,10,0.12
2014-10-8,80.0,67.1,59.8,64.2,57.1,47.3,98,73,42,30.07,29.99,1,0,7,0.01
2014-10-9,76.7,65.8,61.8,59.7,52.7,44.0,92,64,44,30.13,30.05,0,0,8,0.00
2014-10-10,75.0,66.3,61.8,67.2,62.8,58.4,96,88,76,30.09,29.97,0,0,7,0.00
2014-10-11,74.3,66.6,63.2,69.5,64.3,60.9,97,92,85,30.01,29.93,0,0,7,0.23
2014-10-12,64.4,58.1,53.3,62.6,57.2,53.0,99,97,91,30.19,30.00,1,0,8,0.22
2014-10-13,63.1,60.7,53.3,62.8,60.4,53.0,99,99,98,30.23,30.14,3,0,7,0.43
2014-10-14,65.8,62.7,57.8,65.8,62.5,57.5,100,99,99,30.08,29.67,11,0,13,2.37
2014-10-15,58.1,57.7,57.5,57.7,57.4,57.2,99,99,99,29.80,29.80,1,0,5,0.00
2014-10-21,67.0,55.7,49.0,51.8,45.7,38.9,82,70,54,30.00,29.89,3,0,18,0.00
2014-10-22,56.3,48.0,44.1,39.0,36.9,35.0,75,66,50,30.13,29.97,5,4,25,0.00
2014-10-23,65.6,50.6,42.0,40.4,37.9,36.0,83,64,38,30.14,30.05,5,3,18,0.01
2014-10-24,61.9,54.4,49.2,50.2,41.4,33.8,77,62,49,30.09,30.00,4,1,17,0.03
2014-10-25,71.0,58.9,52.6,49.7,39.8,24.6,70,50,25,30.07,29.97,4,2,18,0.00
2014-10-26,76.3,65.0,57.0,51.5,45.5,37.7,74,52,25,29.98,29.92,3,1,16,0.00
2014-10-27,64.3,61.8,58.7,48.8,45.9,40.7,67,56,42,30.10,29.98,2,0,3,0.09
2014-11-5,58.9,54.5,51.5,50.3,42.4,31.4,91,65,44,30.29,30.17,0,0,7,0.00
2014-11-6,64.9,54.1,43.2,57.7,46.9,28.4,99,79,45,30.14,29.80,3,1,17,0.08
2014-11-7,52.4,44.0,37.8,34.5,31.1,24.1,77,61,44,30.07,29.91,11,4,37,0.00
2014-11-8,54.9,43.7,35.3,37.4,33.3,28.9,79,68,50,30.10,29.98,1,0,8,0.00
2014-11-9,63.3,51.2,44.4,39.6,36.7,33.6,68,58,39,30.05,29.95,4,1,12,0.00
2014-11-10,62.7,51.5,44.4,44.6,40.9,38.7,83,68,44,30.10,30.03,1,0,9,0.20
2014-11-11,54.7,50.2,46.1,39.2,34.7,30.6,75,56,45,30.08,30.05,2,0,3,0.00
2014-11-12,70.6,59.3,48.4,52.6,46.0,33.7,85,63,39,30.00,29.93,2,0,9,0.00
2014-11-13,54.6,43.6,30.9,43.9,38.7,26.9,91,83,66,30.05,29.95,7,2,18,0.00
2014-11-14,35.5,29.0,24.8,26.0,19.5,15.7,85,69,46,30.25,30.05,10,5,25,0.57
2014-11-15,38.6,28.3,20.7,16.9,14.9,12.4,73,58,39,30.51,30.36,4,1,13,0.00
2014-11-16,49.1,40.6,31.8,38.5,33.4,15.8,92,77,47,30.42,30.09,1,0,8,0.03
2014-11-17,49.4,40.3,27.7,48.9,38.5,20.5,98,93,74,30.05,29.68,6,2,26,1.64
2014-11-18,30.5,22.4,15.9,20.2,11.7,5.3,84,64,46,30.38,29.96,4,2,25,0.00
2014-11-19,37.7,27.3,18.6,19.8,10.4,3.5,62,49,35,30.46,30.31,2,0,9,0.00
2014-11-20,54.0,40.2,30.4,31.4,22.6,18.6,67,51,27,30.30,30.14,2,0,13,0.00
2014-11-21,55.1,42.6,34.4,25.1,20.6,14.4,59,42,28,30.51,30.24,4,1,13,0.00
2014-11-22,50.4,39.7,30.9,23.2,17.7,11.1,46,41,33,30.55,30.36,1,0,7,0.00
2014-11-23,51.2,49.0,43.1,50.7,47.1,20.4,98,94,37,30.34,29.75,10,0,17,2.93
2014-11-24,63.3,55.5,50.4,58.1,52.7,45.8,99,91,66,29.91,29.73,3,1,15,0.04
2014-11-25,54.3,48.3,42.9,46.7,35.4,26.0,78,62,35,30.09,29.91,5,2,16,0.00
2014-11-26,47.0,41.9,38.0,42.8,37.0,26.5,96,83,53,30.06,29.92,6,1,16,0.69
2014-11-27,40.5,35.0,28.5,31.8,26.8,23.4,86,72,58,30.33,29.98,6,2,27,0.01
2014-11-28,43.1,31.5,23.1,22.9,18.7,16.1,79,60,37,30.43,30.33,3,0,16,0.00
2014-11-29,52.3,46.3,32.2,29.0,26.4,19.0,62,46,38,30.33,30.25,9,1,9,0.00
2014-12-3,61.0,52.0,45.8,54.5,48.7,45.0,99,89,68,30.31,30.21,2,0,9,0.03
2014-12-4,54.5,50.9,47.9,46.2,44.0,41.0,85,77,65,30.36,30.26,1,0,6,0.00
2014-12-5,47.4,45.5,44.0,46.2,44.2,40.9,98,95,78,30.43,30.35,1,0,6,0.07
2014-12-6,52.1,46.3,42.9,51.8,45.5,39.0,99,97,86,30.35,30.06,11,2,41,0.22
2014-12-7,50.2,42.3,36.4,38.7,27.7,15.2,86,60,32,30.41,30.17,9,4,38,0.00
2014-12-8,37.3,33.7,31.0,33.5,25.1,15.5,97,73,44,30.43,30.25,3,2,18,0.00
2014-12-9,41.4,37.1,34.2,35.4,32.8,30.9,98,85,79,30.21,30.05,15,2,17,0.01
2014-12-12,52.8,40.9,31.3,18.6,11.4,6.8,59,31,19,30.36,30.24,7,5,27,0.00
2014-12-13,58.4,48.3,39.5,17.5,12.2,6.7,35,24,14,30.24,30.11,7,4,28,0.00
2014-12-14,65.7,51.7,43.5,20.6,17.3,12.2,39,26,16,30.11,30.02,8,4,22,0.00
2014-12-15,53.9,47.5,41.6,32.5,27.3,18.0,60,46,28,30.10,30.03,1,0,6,0.00
2014-12-16,55.7,46.4,42.9,50.3,40.5,32.4,98,81,56,30.07,29.87,5,1,20,0.18
2014-12-17,53.9,43.0,37.8,37.7,34.6,26.9,84,73,54,30.18,30.08,6,2,20,0.00
2014-12-18,52.7,43.5,38.2,28.8,25.9,16.4,65,50,32,30.18,30.08,8,1,18,0.33
2014-12-19,50.5,42.1,36.0,34.5,30.8,26.5,71,64,54,30.21,30.10,6,2,17,0.00
2014-12-20,42.3,38.7,37.1,37.8,35.4,32.0,98,88,67,30.25,30.19,0,0,4,0.05
2014-12-21,42.3,39.1,36.9,40.7,37.9,36.4,98,96,90,30.30,30.19,1,0,7,0.01
2014-12-22,38.7,37.8,37.2,38.2,37.3,36.4,98,98,94,30.20,30.01,9,1,10,0.15
2014-12-23,48.9,42.9,37.7,48.6,42.5,37.1,99,99,97,30.07,29.89,5,0,7,0.50
2014-12-24,53.2,49.7,47.0,52.9,49.4,46.7,99,99,98,29.91,29.71,7,0,8,1.31
2014-12-25,49.4,41.6,35.8,41.7,34.2,30.1,97,76,54,30.28,29.77,3,1,16,0.00
2014-12-26,55.0,44.7,39.5,37.6,33.0,31.1,75,64,48,30.38,30.27,1,0,7,0.00
2014-12-27,56.6,49.4,42.6,36.7,32.9,23.3,72,54,32,30.34,30.21,0,0,8,0.00
2014-12-28,53.1,50.7,45.9,52.5,48.8,37.0,99,94,65,30.20,30.00,4,0,7,0.05
2014-12-29,53.1,50.7,48.5,50.6,49.2,47.4,98,95,86,30.12,30.03,4,1,12,0.20
2014-12-30,50.2,38.8,33.9,49.9,37.6,29.0,99,95,81,30.45,30.08,2,1,10,0.06
2014-12-31,41.5,33.9,30.1,35.0,28.7,23.8,88,81,65,30.50,30.40,2,0,10,0.00
2015-1-1,48.2,38.1,30.1,32.9,26.6,20.7,85,64,46,30.40,30.27,0,0,8,0.00
2015-1-2,51.4,46.8,42.7,47.8,42.2,33.2,98,84,69,30.34,30.27,0,0,4,0.12